Regional Weather Roundup
Issued by NWS

Home | Current Version | Previous Version | Graphics & Text | Print | Product List | Glossary Off
Versions: 1 2 3 4 5 6 7 8 9 10 11 12 13 14 15 16 17 18 19 20 21 22 23 24 25 26 27 28 29 30 31 32 33 34 35 36 37 38 39 40 41 42 43 44 45 46 47 48 49 50

000
ASUS43 KFSD 031902
RWRSD

WEATHER ROUNDUP FOR SOUTH DAKOTA
NATIONAL WEATHER SERVICE SIOUX FALLS SD
200 PM CDT SUN MAY 03 2015

NOTE: "FAIR" INDICATES FEW OR NO CLOUDS BELOW 12,000 FEET WITH NO
SIGNIFICANT WEATHER AND/OR OBSTRUCTIONS TO VISIBILITY.


SDZ001>005-009-010-012>017-032000-
NORTHWEST AND NORTH CENTRAL SOUTH DAKOTA

CITY           SKY/WX    TMP DP  RH WIND       PRES   REMARKS
BUFFALO          N/A     54  36  50 N7        30.00S
FAITH            N/A     66  31  27 N18G24    30.00R
MOBRIDGE       PTSUNNY   64  33  31 N15G25    29.95R
$$

SDZ012>016-024>037-041>051-057-063-072>074-032000-
SOUTHWEST AND SOUTH CENTRAL SOUTH DAKOTA

CITY           SKY/WX    TMP DP  RH WIND       PRES   REMARKS
RAPID CTY ARPT SUNNY     67  37  33 N17       30.00F
PIERRE         MOSUNNY   74  34  23 NE22G30   29.91F
CUSTER         SUNNY     59  34  39 NE13G22   30.04F
ELLSWORTH AFB  SUNNY     66  38  35 NE15G22   30.00F
PHILIP         SUNNY     73  36  25 NE17G26   29.95S
PINE RIDGE     MOSUNNY   67  37  33 NE16G28   29.97S
WINNER         LGT RAIN  75  37  25 NE30      29.88F
$$

SDZ004>011-016>023-039-040-032000-
NORTHEAST SOUTH DAKOTA

CITY           SKY/WX    TMP DP  RH WIND       PRES   REMARKS
ABERDEEN       CLOUDY    70  33  25 N22G31    29.93R
WATERTOWN      MOSUNNY   69  37  30 NE23G35   29.88R
BROOKINGS      CLOUDY    72  39  30 N29G38    29.86R
SISSETON         N/A     69  38  32 N18       29.92R
$$

SDZ017-020-022-023-036>040-048>070-032000-
SOUTHEAST SOUTH DAKOTA

CITY           SKY/WX    TMP DP  RH WIND       PRES   REMARKS
SIOUX FALLS    PTSUNNY   82  54  37 N9        29.78S
HURON          MOSUNNY   73  38  27 N23G30    29.88R
MITCHELL       PTSUNNY   76  41  28 N29G38    29.85R
YANKTON        MOSUNNY   81  57  44 N12       29.74S
$$

ABBREVIATIONS USED IN REMARKS
   TC - TEMPERATURE IN CELSIUS
  WCI - WIND CHILL INDEX
   HX - HEAT INDEX
  VSB - VISIBILITY



USA.gov is the U.S. government's official web portal to all federal, state and local government web resources and services.